www.pogodaiklimat.ru

Погода и климат >> Архив погоды >> Россия >> Калининградская область >> Рыбный Порт


ПОГОДА в Рыбном Порту

  • Прогноз погоды в Рыбном Порту
  • Монитор погоды в Рыбном Порту

АРХИВ ПОГОДЫ в Рыбном Порту

Время (UTC), дата Ветер
(напр.,м/с)
 
Видим.   Явления Облачность Т
(С)
Тd
(С)
f
(%)
Тe
(С)
Тes
(С)
Комфортность P
(гПа)
Po
(гПа)
Тmin
(С)
Tmax
(С)
R
(мм)
R24
(мм)
S
(см)
09 14.07 СВ 4-8
{9}
н/о н/о +16.8 +6.3 50 +16 +16 1013.5 1013.1
12 14.07 С 4-7
{9}
н/о н/о +18.3 +8.7 53 +18 +18 1013.6 1013.2
15 14.07 С 3-6
{9}
н/о н/о +18.9 +7.9 49 +20 +20 1013.7 1013.3
18 14.07 С 2-3
{7}
н/о н/о +17.9 +10.0 60 +18 +18 1013.7 1013.3 +19.1
21 14.07 З 1-1
{4}
н/о н/о +14.7 +12.1 84 +15 +15 1014.1 1013.7
00 15.07 ЮЗ 1-2
{2}
н/о н/о +12.8 +11.2 90 +13 +13 1014.2 1013.8
03 15.07 штиль 0
{2}
н/о н/о +11.9 +10.7 92 +11 +11 1014.0 1013.6 +11.5
06 15.07 СЗ 2-3
{3}
н/о н/о +16.6 +12.2 75 +17 +17 1014.2 1013.8 +11.5
09 15.07 ЮЗ 3-5
{5}
н/о н/о +18.7 +11.8 64 +20 +20 1013.9 1013.5
12 15.07 ЮЗ 6-8
{8}
н/о н/о +19.8 +11.4 58 +21 +21 комфорт 1013.4 1013.0
15 15.07 ЮЗ 2-4
{8}
н/о н/о +20.5 +10.3 52 +23 +23 комфорт 1012.7 1012.3
18 15.07 СЗ 1-3
{4}
н/о н/о +20.3 +9.6 50 +23 +23 комфорт 1011.8 1011.4 +21.2
21 15.07 штиль 0
{5}
н/о н/о +15.9 +12.8 82 +16 +16 1011.9 1011.5
00 16.07 ЮЗ 1-1
{1}
н/о н/о +15.7 +13.6 87 +16 +16 1011.0 1010.5
06 16.07 ЮЗ 2-4
{4}
н/о н/о +15.6 +12.9 84 +15 +15 1008.0 1007.6 +14.5
09 16.07 З 3-5
{10}
н/о н/о +15.4 +12.9 85 +15 +15 1007.7 1007.3
12 16.07 СЗ 2-5
{7}
н/о н/о +16.5 +11.2 71 +17 +17 1007.8 1007.3
15 16.07 С 3-6
{7}
н/о н/о +17.4 +8.8 57 +17 +17 1008.7 1008.2
18 16.07 З 1-3
{6}
н/о н/о +15.9 +10.8 72 +17 +17 1008.8 1008.4 +18.0
21 16.07 З 1-2
{5}
н/о н/о +14.2 +11.7 85 +15 +15 1008.2 1007.8
00 17.07 штиль 0
{4}
н/о н/о +13.6 +12.0 90 +13 +13 1007.6 1007.2
03 17.07 З 1-3
{3}
н/о н/о +12.6 +11.2 91 +13 +13 1007.1 1006.7 +12.8
06 17.07 С 2-5
{5}
н/о н/о +14.4 +11.8 84 +14 +14 1008.0 1007.6 +12.1
09 17.07 С 3-6
{8}
н/о н/о +17.1 +10.0 63 +17 +17 1009.3 1008.9
12 17.07 З 4-7
{8}
н/о н/о +15.6 +13.0 85 +15 +15 1010.4 1010.0
18 17.07 СЗ 2-5
{9}
н/о н/о +16.7 +11.2 70 +17 +17 1011.8 1011.4 +18.3
21 17.07 З 2-3
{5}
н/о н/о +13.8 +11.9 88 +13 +13 1012.0 1011.6
00 18.07 З 1-2
{4}
н/о н/о +12.7 +11.4 92 +13 +13 1012.4 1012.0
03 18.07 З 2-2
{3}
н/о н/о +13.8 +12.4 91 +13 +13 1012.3 1011.9 +12.6
06 18.07 З 1-3
{4}
н/о н/о +16.0 +13.2 83 +17 +17 1012.7 1012.3 +12.6
09 18.07 С 2-6
{6}
н/о н/о +18.6 +11.8 65 +20 +20 1013.2 1012.8
12 18.07 СЗ 2-4
{6}
н/о н/о +20.2 +12.0 59 +23 +23 комфорт 1013.5 1013.1
15 18.07 С 2-4
{5}
н/о н/о +20.2 +12.1 60 +23 +23 комфорт 1013.6 1013.2
18 18.07 С 2-4
{6}
н/о н/о +18.1 +12.3 69 +19 +19 1013.7 1013.3 +20.7
21 18.07 штиль 0
{5}
н/о н/о +15.0 +13.0 88 +15 +15 1014.2 1013.8
00 19.07 штиль 0
{1}
н/о н/о +13.8 +12.6 92 +13 +13 1014.5 1014.1
03 19.07 штиль 0
{2}
н/о н/о +12.2 +11.3 94 +12 +12 1014.5 1014.1 +11.7
06 19.07 штиль 0
{1}
н/о н/о +15.2 +13.5 90 +15 +15 1014.7 1014.3 +11.7
09 19.07 штиль 0
{2}
н/о н/о +20.4 +11.0 55 +22 +22 комфорт 1014.6 1014.1
12 19.07 ЮЗ 1-2
{3}
н/о н/о +23.3 +7.2 35 +24 +24 комфорт 1014.1 1013.7
15 19.07 СВ 5-7
{8}
н/о н/о +22.8 +13.3 55 +26 +26 жарко 1013.3 1012.9
18 19.07 СВ 3-5
{7}
н/о н/о +21.0 +11.2 53 +23 +23 комфорт 1013.5 1013.0 +24.8
21 19.07 СВ 2-4
{5}
н/о н/о +18.9 +12.7 67 +20 +20 1014.1 1013.7
00 20.07 СВ 2-4
{5}
н/о н/о +17.1 +13.4 79 +17 +17 1014.2 1013.8
03 20.07 СВ 2-4
{5}
н/о н/о +16.2 +11.9 76 +16 +16 1014.4 1014.0 +16.2
06 20.07 СВ 1-2
{5}
н/о н/о +18.5 +12.0 66 +20 +20 1015.1 1014.7 +16.1
09 20.07 СВ 2-4
{5}
н/о н/о +23.7 +10.5 43 +25 +25 комфорт 1015.5 1015.1
15 20.07 СВ 2-5
{6}
н/о н/о +25.3 +14.3 51 +28 +28 жарко 1015.8 1015.4

 

Местоположение метеостанции Рыбный Порт (Калининградская область, Россия): широта 54.70 долгота 20.45 высота над уровнем моря 4 м.

В архиве по умолчанию представлена погода в Рыбном Порту за последнюю неделю. Архивные данные за месяц целиком и за предыдущие месяцы, начиная с января 2011 года, Вы можете получить, выбрав интересующий диапазон дат из раскрывающегося списка и нажав кнопку "Ввод!".


*Определитесь, кто Вы:
робот инопланетянин человек

Внимание! Время в таблицах - всемирное. Для получения местного времени необходимо прибавить поправку, которая равна 2 ч.

Смотрите также архив погоды в соседних городах и на ближайших метеорологических станциях:

Погода в Калининграде (Калининградская область, Россия) (11 км)
Погода в Пионерском (Калининградская область, Россия) (32 км)
Погода в Балтийске (Калининградская область, Россия) (37 км)
Погода в Мамоново (Калининградская область, Россия) (42 км)
Погода в Рыбачем (Калининградская область, Россия) (57 км)
Погода в Железнодорожном (Калининградская область, Россия) (66 км)
Погода в Ниде (Литва) (78 км)
Погода в Черняховске (Калининградская область, Россия) (87 км)
Погода в Эльблонге (Польша) (88 км)
Погода в Кентшине (Польша) (92 км)

Пояснения к столбцам:

Ветер - указаны скорость ветра в м/с - средняя за 10 мин, порывы в срок и между сроками (в фигурных скобках) и направление, откуда дует ветер: С - северный, СВ - северо-восточный, В - восточный, ЮВ - юго-восточный, Ю - южный, ЮЗ - юго-западный, З - западный, СЗ - северо-западный.
Видимость - горизонтальная дальность видимости в метрах или километрах. При видимости от 1 до 10 км при отсутствии осадков обычно наблюдается дымка, при ухудшении видимости до 1 км и менее - туман. В сухую погоду видимость может ухудшаться дымом, пылью или мглою.
Явления - указаны атмосферные явления, наблюдавшиеся в срок или в последний час перед сроком; фигурными скобками обозначены явления, наблюдавшиеся между сроками (за 1-3 часа до срока); квадратными скобками обозначены град или гололедные отложения с указанием их диаметра в мм.
Облачность - указаны через наклонную черту общая и нижняя облачность в баллах и высота нижней границы облаков в метрах; квадратными скобками обозначены формы облаков: Ci - перистые, Cs - перисто-слоистые, Cc - перисто-кучевые, Ac - высококучевые, As - высокослоистые, Sc - слоисто-кучевые, Ns - слоисто-дождевые, Cu - кучевые, Cb - кучево-дождевые. Подробнее классификацию облаков см. в Атласе облаков (PDF).
T - Температура воздуха - температура, измеренная на высоте 2 м над землей.
Td - Температура точки росы - температура, при понижении до которой содержащийся в воздухе водяной пар достигнет насыщения.
f - Относительная влажность воздуха - влажноcть воздуха, измеренная на высоте 2 м над землей.
Te - Эффективная температура - температура, которую ощущает одетый по сезону человек в тени. Характеристика душности погоды. При расчете учитывается влияние влажности воздуха и скорости ветра на теплоощущения человека.
Tes - Эффективная температура на солнце - температура, которую ощущает человек, с поправкой на солнечный нагрев. Характеристика знойности погоды. Зависит от высоты солнца над горизонтом, облачности и скорости ветра. Ночью, в пасмурную погоду, а также при ветре 12 м/с и более поправка равна нулю.
P - Атмосферное давление - приведенное к уровню моря атмосферное давление.
Po - Атмосферное давление - измеренное на уровне метеостанции атмосферное давление.
Tmin - Минимальная температура - минимум температуры воздуха на высоте 2 м над землей.
Tmax - Максимальная температура - максимум температуры воздуха на высоте 2 м над землей.
R - Количество осадков - Количество выпавших осадков за период времени, мм. При наведении курсора мыши на число - период времени, за который выпало указанное количество осадков.
R24 - Количество осадков - Количество выпавших осадков за 24 часа, мм.
S - Снежный покров - Высота снежного покрова, см. При наведении курсора мыши на число - состояние снежного покрова и степень покрытия местности в баллах.